DELTA 1 DEB, 42642

Orbit data source: Space-Track

DELTA 1 DEB, 42642 is space debris in LEO originally from a launch on Thu, 12 Jun 1975 UTC launched from the Air Force Western Test Range (AFWTR). Debris objects in space refer to the collection of defunct objects orbiting the Earth. Examples of debris include non-operational satellites, rocket bodies, and fragments generated from explosions, collisions, or faulty payload assembly.

Loading next visibility...
DELTA 1 DEB details
Identifier
42642, 1975-052MB
Orbit
LEO
Last TLE update4 days ago
Origin
Flag of USGSFC (US)
ManufacturerUnknown
MissionSpacecraft
Bus & MotorUnknown
MassUnknown
Launch date (UTC)
1975-06-12 (49 years ago)
Launch vehicleUnknown
Launch site
Air Force Western Test Range (AFWTR)
Object type
Payload
Rocket body
Debris
Shape & HBRUnknown
Radar Cross SectionSmall (<0.1 m²)

Expand to show TLE details & history

TLE from 4 days ago
0 DELTA 1 DEB
1 42642U 75052MB  24335.58646372  .00000247  00000-0  60003-3 0  9990
2 42642  99.8746  84.4860 0075597 278.6222  80.6342 13.31284898 45521
Epoch: 2024-11-30T14:04Z
Definitive object data (Epoch: 2024-11-30T14:04:30.465Z)
Latitude-0.00001°
Longitude163.42217°
Altitude1,135.841 km
Speed7.289 km/s
True Right ascension05h 37m 56s
True Declination0° 00' 00"
Sunlit
Object was in full shadow at TLE epoch
Visualization TLE readout
Latitude-7.98634°
Longitude-14.32881°
Altitude1,137.338 km
Speed7.288 km/s
Apparent Right ascension18h 18m 31s
Apparent Declination-22° 47' 06"
Sunlit
Object is in daylight
Visualization observer readout
Local Sidereal Time07:06:44
Azimuth34.361° NE
Elevation-70.06°
Doppler factor1
Orbital elements
Apogee altitude1,196.085 km
Perigee altitude1,082.427 km
Semi-major axis7,517.393 km
Eccentricity0.0075597
Inclination99.8746°
RAAN84.486°
Arg. of periapsis278.6222°
True anomaly81.49021°
Mean anomaly80.6342°
Eccentric anomaly81.06208°
Mean motion3.32999 °/min
BSTAR0.00060003
Orbital period108.11 mins
Loading maneuver chart data...
Loading historical data...
Loading historical data...
Loading historical data...
Loading historical data...
Loading historical data...
Loading historical data...
Loading historical data...

DELTA 1 DEB Visibility forecast

Observer location: undefined°, undefined

Span
Click to sort rows by Start time (UTC) header in descending order
Start Az.
Max El. time (UTC)
Max El. Az.
Max El.
End time (UTC)
End Az.
12 mins2024-12-04 19:41:29.318Z29.214° NE2024-12-04 19:47:29.318Z94.123° ESE35.261°2024-12-04 19:53:29.318Z167.56° S
10 mins2024-12-04 21:29:29.318Z349.876° N2024-12-04 21:34:29.318Z289.039° WNW29.456°2024-12-04 21:39:29.318Z237.959° WSW
10 mins2024-12-05 06:03:29.318Z109.731° ESE2024-12-05 06:08:29.318Z55.759° ENE25.075°2024-12-05 06:13:29.318Z8.279° NNE
12 mins2024-12-05 07:48:29.318Z183.368° SSW2024-12-05 07:54:29.318Z268.161° W39.987°2024-12-05 08:00:29.318Z335.321° NNW
|